#timestamp,LO_Frequency,Hit,StdDev 
1599324355.9,286047026.9,P
1599324375.8,286047029.9,P
1599324395.6,286047030.0,P
1599324415.5,286047029.2,Y
1599324435.3,286047000.1,P
1599324455.1,286047002.5,N
1599324475.9,286047002.5,N
1599324495.7,286047000.2,N
1599324515.5,286047002.4,N
1599324535.4,286047001.8,N
1599324555.2,286047001.6,N
1599324575.1,286047001.7,N
1599324576.0,286047001.7,N
1599324595.8,286047004.3,N
1599324615.6,286047003.7,N
1599324635.5,286047001.8,N
1599324655.3,286047003.7,N
1599324675.1,286047003.8,N
1599324695.9,286047003.3,N
1599324715.7,286047005.5,N
1599324735.6,286047004.7,N
1599324755.4,286047004.7,N
1599324775.2,286047005.8,N
1599324795.1,286047007.3,N
1599324796.0,286047007.3,N
1599324815.8,286047007.6,N
1599324835.7,286047007.1,N
1599324855.5,286047006.4,N
1599324875.3,286047009.2,N
1599324895.2,286047008.8,N
1599324915.0,286047008.6,N
1599324915.9,286047008.6,N
1599324935.8,286047008.8,N
1599324955.6,286047007.9,N
1599324975.4,286047008.2,N
1599324995.3,286047010.1,Y
1599325015.1,286047005.9,P
1599325035.8,286047005.6,P
1599325055.7,286047005.3,P
1599325075.5,286047004.7,Y
1599325095.4,286047000.6,P
1599325115.2,286047000.9,N
1599325135.0,286047002.3,N
1599325135.9,286047002.3,N
1599325155.8,286046999.8,N
1599325175.6,286047000.0,N
1599325195.4,286047001.5,N
